| time (UTC) | temp F | wind direction | speed MPH | gust MPH | rain 1hr in | rain 24hr in | rain mn in | humidity % | barometer mb |
| 20260906182447 | 78 | 120 | 2.0 | 3.0 | 0.00 | 0.00 | 0.00 | 60 | 1018.7 |
| 20260906181943 | 78 | 261 | 3.0 | 3.0 | 0.00 | 0.00 | 0.00 | 60 | 1019.0 |
| 20260906181439 | 77 | 86 | 1.0 | 1.0 | 0.00 | 0.00 | 0.00 | 62 | 1018.9 |
| 20260906180934 | 76 | 121 | 0.0 | 0.0 | 0.00 | 0.00 | 0.00 | 67 | 1018.9 |
| 20260906180429 | 75 | 110 | 0.0 | 0.0 | 0.00 | 0.00 | 0.00 | 68 | 1018.9 |
| 20260906175927 | 77 | 37 | 2.0 | 2.0 | 0.00 | 0.00 | 0.00 | 63 | 1019.0 |
| 20260906175422 | 76 | 74 | 2.0 | 2.0 | 0.00 | 0.00 | 0.00 | 64 | 1019.1 |
| 20260906174920 | 76 | 160 | 1.0 | 2.0 | 0.00 | 0.00 | 0.00 | 66 | 1019.0 |
| 20260906174420 | 76 | 106 | 3.0 | 6.0 | 0.00 | 0.00 | 0.00 | 67 | 1019.3 |
| 20260906173915 | 76 | 48 | 1.0 | 2.0 | 0.00 | 0.00 | 0.00 | 67 | 1019.0 |
| 20260906173410 | 78 | 74 | 1.0 | 2.0 | 0.00 | 0.00 | 0.00 | 63 | 1019.3 |
| 20260906172909 | 78 | 134 | 1.0 | 2.0 | 0.00 | 0.00 | 0.00 | 63 | 1019.3 |
| 20260906172407 | 78 | 117 | 2.0 | 2.0 | 0.00 | 0.00 | 0.00 | 63 | 1019.5 |
| 20260906171902 | 77 | 113 | 0.0 | 1.0 | 0.00 | 0.00 | 0.00 | 67 | 1019.4 |
| 20260906171356 | 77 | 243 | 1.0 | 2.0 | 0.00 | 0.00 | 0.00 | 68 | 1019.5 |
| 20260906170852 | 77 | 192 | 1.0 | 1.0 | 0.00 | 0.00 | 0.00 | 65 | 1019.6 |
| 20260906170348 | 77 | 178 | 1.0 | 2.0 | 0.00 | 0.00 | 0.00 | 67 | 1019.6 |
| 20260906165844 | 76 | 269 | 1.0 | 1.0 | 0.00 | 0.00 | 0.00 | 67 | 1019.5 |
| 20260906165343 | 74 | 137 | 1.0 | 1.0 | 0.00 | 0.00 | 0.00 | 71 | 1019.6 |
| 20260906164838 | 72 | 130 | 0.0 | 0.0 | 0.00 | 0.00 | 0.00 | 75 | 1019.7 |
| 20260906164337 | 72 | 5 | 3.0 | 3.0 | 0.00 | 0.00 | 0.00 | 74 | 1019.5 |
| 20260906163833 | 74 | 24 | 0.0 | 1.0 | 0.00 | 0.00 | 0.00 | 73 | 1019.7 |
| 20260906163329 | 74 | 161 | 0.0 | 0.0 | 0.00 | 0.00 | 0.00 | 74 | 1019.6 |
| 20260906162827 | 74 | 140 | 1.0 | 2.0 | 0.00 | 0.00 | 0.00 | 74 | 1019.5 |
| 20260906162326 | 74 | 123 | 2.0 | 2.0 | 0.00 | 0.00 | 0.00 | 74 | 1019.7 |
| 20260906161821 | 74 | 24 | 1.0 | 2.0 | 0.00 | 0.00 | 0.00 | 74 | 1019.5 |
| 20260906161320 | 76 | 151 | 2.0 | 2.0 | 0.00 | 0.00 | 0.00 | 70 | 1019.7 |
| 20260906160819 | 75 | 113 | 0.0 | 1.0 | 0.00 | 0.00 | 0.00 | 70 | 1019.7 |
| 20260906160313 | 74 | 125 | 0.0 | 0.0 | 0.00 | 0.00 | 0.00 | 74 | 1019.4 |
| 20260906155811 | 75 | 223 | 2.0 | 2.0 | 0.00 | 0.00 | 0.00 | 71 | 1019.6 |
| 20260906155307 | 74 | 115 | 0.0 | 0.0 | 0.00 | 0.00 | 0.00 | 74 | 1020.1 |
| 20260906154802 | 75 | 134 | 2.0 | 2.0 | 0.00 | 0.00 | 0.00 | 72 | 1020.1 |
| 20260906154256 | 73 | 113 | 1.0 | 2.0 | 0.00 | 0.00 | 0.00 | 75 | 1019.8 |
| 20260906153755 | 73 | 71 | 1.0 | 1.0 | 0.00 | 0.00 | 0.00 | 77 | 1019.9 |
| 20260906153249 | 74 | 109 | 1.0 | 1.0 | 0.00 | 0.00 | 0.00 | 75 | 1019.9 |
| 20260906152744 | 72 | 175 | 1.0 | 2.0 | 0.00 | 0.00 | 0.00 | 78 | 1019.9 |
| 20260906152239 | 72 | 88 | 3.0 | 5.0 | 0.00 | 0.00 | 0.00 | 78 | 1019.7 |
| 20260906151738 | 72 | 131 | 0.0 | 0.0 | 0.00 | 0.00 | 0.00 | 78 | 1019.8 |
| 20260906151234 | 71 | 78 | 3.0 | 3.0 | 0.00 | 0.00 | 0.00 | 80 | 1019.7 |
| 20260906150730 | 72 | 336 | 6.0 | 7.0 | 0.00 | 0.00 | 0.00 | 77 | 1019.6 |
| 20260906150225 | 71 | 124 | 0.0 | 0.0 | 0.00 | 0.00 | 0.00 | 81 | 1019.5 |
| 20260906145724 | 72 | 119 | 1.0 | 1.0 | 0.00 | 0.00 | 0.00 | 80 | 1019.6 |
| 20260906145223 | 72 | 317 | 0.0 | 2.0 | 0.00 | 0.00 | 0.00 | 81 | 1019.4 |
| 20260906144719 | 71 | 124 | 1.0 | 2.0 | 0.00 | 0.00 | 0.00 | 81 | 1019.5 |
| 20260906144213 | 70 | 133 | 2.0 | 2.0 | 0.00 | 0.00 | 0.00 | 82 | 1019.6 |
| 20260906143712 | 70 | 298 | 3.0 | 3.0 | 0.00 | 0.00 | 0.00 | 81 | 1019.4 |
| 20260906143210 | 71 | 173 | 2.0 | 3.0 | 0.00 | 0.00 | 0.00 | 83 | 1019.4 |
| 20260906142709 | 70 | 221 | 1.0 | 1.0 | 0.00 | 0.00 | 0.00 | 84 | 1019.4 |
| 20260906142205 | 68 | 131 | 1.0 | 1.0 | 0.00 | 0.00 | 0.00 | 87 | 1019.3 |
| 20260906141703 | 68 | 121 | 0.0 | 0.0 | 0.00 | 0.00 | 0.00 | 87 | 1019.3 |
| 20260906141158 | 67 | 114 | 0.0 | 0.0 | 0.00 | 0.00 | 0.00 | 88 | 1019.3 |
| 20260906140657 | 67 | 133 | 0.0 | 0.0 | 0.00 | 0.00 | 0.00 | 89 | 1019.2 |
| 20260906140153 | 66 | 84 | 0.0 | 1.0 | 0.00 | 0.00 | 0.00 | 89 | 1019.2 |
| 20260906135649 | 66 | 53 | 1.0 | 2.0 | 0.00 | 0.00 | 0.00 | 89 | 1019.2 |
| 20260906135146 | 65 | 127 | 0.0 | 0.0 | 0.00 | 0.00 | 0.00 | 92 | 1019.3 |
| 20260906134641 | 64 | 112 | 0.0 | 0.0 | 0.00 | 0.00 | 0.00 | 93 | 1019.2 |
| 20260906134136 | 63 | 130 | 0.0 | 0.0 | 0.00 | 0.00 | 0.00 | 95 | 1019.4 |
| 20260906133632 | 62 | 130 | 0.0 | 0.0 | 0.00 | 0.00 | 0.00 | 97 | 1019.3 |
| 20260906133126 | 61 | 122 | 1.0 | 1.0 | 0.00 | 0.00 | 0.00 | 99 | 1019.2 |
| 20260906132621 | 61 | 121 | 1.0 | 1.0 | 0.00 | 0.00 | 0.00 | 99 | 1019.4 |
| 20260906132117 | 60 | 129 | 0.0 | 0.0 | 0.00 | 0.00 | 0.00 | 99 | 1019.4 |
| 20260906131613 | 60 | 81 | 0.0 | 1.0 | 0.00 | 0.00 | 0.00 | 99 | 1019.5 |
| 20260906131108 | 59 | 125 | 0.0 | 0.0 | 0.00 | 0.00 | 0.00 | 99 | 1019.5 |
| 20260906130602 | 59 | 132 | 0.0 | 0.0 | 0.00 | 0.00 | 0.00 | 99 | 1019.4 |
| 20260906130057 | 59 | 105 | 0.0 | 0.0 | 0.00 | 0.00 | 0.00 | 99 | 1019.4 |
| 20260906125554 | 58 | 327 | 0.0 | 1.0 | 0.00 | 0.00 | 0.00 | 99 | 1019.3 |
| 20260906125049 | 58 | 128 | 0.0 | 0.0 | 0.00 | 0.00 | 0.00 | 99 | 1019.1 |
| 20260906124544 | 58 | 123 | 0.0 | 0.0 | 0.00 | 0.00 | 0.00 | 99 | 1019.2 |
| 20260906124039 | 57 | 128 | 0.0 | 0.0 | 0.00 | 0.00 | 0.00 | 99 | 1019.0 |
| 20260906123538 | 57 | 147 | 0.0 | 0.0 | 0.00 | 0.00 | 0.00 | 99 | 1018.9 |
| 20260906123033 | 56 | 129 | 0.0 | 0.0 | 0.00 | 0.00 | 0.00 | 99 | 1018.9 |
| 20260906122527 | 56 | 132 | 0.0 | 0.0 | 0.00 | 0.00 | 0.00 | 99 | 1019.1 |
| 20260906122024 | 56 | 137 | 0.0 | 0.0 | 0.00 | 0.00 | 0.00 | 99 | 1018.9 |
| 20260906121520 | 55 | 135 | 0.0 | 0.0 | 0.00 | 0.00 | 0.00 | 99 | 1019.0 |
| 20260906121016 | 55 | 134 | 0.0 | 0.0 | 0.00 | 0.00 | 0.00 | 99 | 1018.9 |
| 20260906120516 | 55 | 133 | 0.0 | 0.0 | 0.00 | 0.00 | 0.00 | 99 | 1018.9 |
| 20260906120013 | 55 | 134 | 0.0 | 0.0 | 0.00 | 0.00 | 0.00 | 99 | 1018.5 |
| 20260906115508 | 54 | 140 | 0.0 | 0.0 | 0.00 | 0.00 | 0.00 | 99 | 1018.5 |
| 20260906115002 | 54 | 136 | 0.0 | 0.0 | 0.00 | 0.00 | 0.00 | 99 | 1018.3 |
| 20260906114456 | 54 | 131 | 0.0 | 0.0 | 0.00 | 0.00 | 0.00 | 99 | 1018.4 |
| 20260906113953 | 54 | 128 | 0.0 | 0.0 | 0.00 | 0.00 | 0.00 | 99 | 1018.3 |
| 20260906113451 | 54 | 126 | 0.0 | 0.0 | 0.00 | 0.00 | 0.00 | 99 | 1018.2 |
| 20260906112947 | 54 | 126 | 0.0 | 0.0 | 0.00 | 0.00 | 0.00 | 99 | 1018.4 |
| 20260906112442 | 54 | 132 | 0.0 | 0.0 | 0.00 | 0.00 | 0.00 | 99 | 1018.5 |
| 20260906111938 | 54 | 133 | 0.0 | 0.0 | 0.00 | 0.00 | 0.00 | 99 | 1018.4 |
| 20260906111437 | 54 | 130 | 0.0 | 0.0 | 0.00 | 0.00 | 0.00 | 99 | 1018.4 |
| 20260906110932 | 54 | 130 | 0.0 | 0.0 | 0.00 | 0.00 | 0.00 | 99 | 1018.4 |
| 20260906110428 | 55 | 130 | 0.0 | 0.0 | 0.00 | 0.00 | 0.00 | 99 | 1018.2 |
| 20260906105926 | 55 | 130 | 0.0 | 0.0 | 0.00 | 0.00 | 0.00 | 99 | 1018.3 |
| 20260906105422 | 55 | 130 | 0.0 | 0.0 | 0.00 | 0.00 | 0.00 | 99 | 1018.1 |
| 20260906104918 | 55 | 130 | 0.0 | 0.0 | 0.00 | 0.00 | 0.00 | 99 | 1018.1 |
| 20260906104416 | 55 | 126 | 0.0 | 0.0 | 0.00 | 0.00 | 0.00 | 99 | 1018.2 |
| 20260906103916 | 55 | 125 | 0.0 | 0.0 | 0.00 | 0.00 | 0.00 | 99 | 1018.1 |
| 20260906103414 | 55 | 126 | 0.0 | 0.0 | 0.00 | 0.00 | 0.00 | 99 | 1018.4 |
| 20260906102910 | 55 | 125 | 0.0 | 0.0 | 0.00 | 0.00 | 0.00 | 99 | 1018.2 |
| 20260906102409 | 55 | 124 | 0.0 | 0.0 | 0.00 | 0.00 | 0.00 | 99 | 1018.4 |
| 20260906101904 | 55 | 125 | 0.0 | 0.0 | 0.00 | 0.00 | 0.00 | 99 | 1018.2 |
| 20260906101359 | 55 | 125 | 0.0 | 0.0 | 0.00 | 0.00 | 0.00 | 99 | 1018.0 |
| 20260906100855 | 55 | 125 | 0.0 | 0.0 | 0.00 | 0.00 | 0.00 | 99 | 1018.0 |
| 20260906100354 | 55 | 128 | 0.0 | 0.0 | 0.00 | 0.00 | 0.00 | 99 | 1018.0 |
| 20260906095849 | 55 | 130 | 0.0 | 0.0 | 0.00 | 0.00 | 0.00 | 99 | 1018.0 |
| 20260906095344 | 56 | 124 | 0.0 | 0.0 | 0.00 | 0.00 | 0.00 | 99 | 1018.1 |
| 20260906094844 | 56 | 125 | 0.0 | 0.0 | 0.00 | 0.00 | 0.00 | 99 | 1017.9 |
| 20260906094339 | 56 | 126 | 0.0 | 0.0 | 0.00 | 0.00 | 0.00 | 99 | 1018.1 |
| 20260906093835 | 56 | 126 | 0.0 | 0.0 | 0.00 | 0.00 | 0.00 | 99 | 1018.2 |
| 20260906093331 | 56 | 131 | 0.0 | 0.0 | 0.00 | 0.00 | 0.00 | 99 | 1018.4 |
| 20260906092825 | 56 | 133 | 0.0 | 0.0 | 0.00 | 0.00 | 0.00 | 99 | 1018.1 |
| 20260906092320 | 56 | 132 | 0.0 | 0.0 | 0.00 | 0.00 | 0.00 | 99 | 1017.9 |
| 20260906091815 | 56 | 132 | 0.0 | 0.0 | 0.00 | 0.00 | 0.00 | 99 | 1018.1 |
| 20260906091312 | 56 | 132 | 0.0 | 0.0 | 0.00 | 0.00 | 0.00 | 99 | 1017.9 |
| 20260906090808 | 56 | 126 | 0.0 | 0.0 | 0.00 | 0.00 | 0.00 | 99 | 1017.7 |
| 20260906090306 | 56 | 128 | 0.0 | 0.0 | 0.00 | 0.00 | 0.00 | 99 | 1017.7 |
| 20260906085801 | 57 | 128 | 0.0 | 0.0 | 0.00 | 0.00 | 0.00 | 99 | 1017.8 |
| 20260906085300 | 57 | 127 | 0.0 | 0.0 | 0.00 | 0.00 | 0.00 | 99 | 1017.8 |
| 20260906084755 | 57 | 131 | 0.0 | 0.0 | 0.00 | 0.00 | 0.00 | 99 | 1017.6 |
| 20260906084254 | 57 | 128 | 0.0 | 0.0 | 0.00 | 0.00 | 0.00 | 99 | 1017.7 |
| 20260906083749 | 57 | 128 | 0.0 | 0.0 | 0.00 | 0.00 | 0.00 | 98 | 1017.7 |
| 20260906083245 | 57 | 128 | 0.0 | 0.0 | 0.00 | 0.00 | 0.00 | 98 | 1017.4 |
| 20260906082739 | 57 | 129 | 0.0 | 0.0 | 0.00 | 0.00 | 0.00 | 98 | 1017.6 |
| 20260906082235 | 57 | 139 | 0.0 | 0.0 | 0.00 | 0.00 | 0.00 | 98 | 1017.5 |
| 20260906081731 | 57 | 136 | 0.0 | 0.0 | 0.00 | 0.00 | 0.00 | 98 | 1017.2 |
| 20260906081225 | 57 | 138 | 0.0 | 0.0 | 0.00 | 0.00 | 0.00 | 98 | 1017.3 |
| 20260906080722 | 58 | 129 | 0.0 | 0.0 | 0.00 | 0.00 | 0.00 | 98 | 1017.4 |
| 20260906080218 | 58 | 131 | 0.0 | 0.0 | 0.00 | 0.00 | 0.00 | 98 | 1017.4 |
| 20260906075712 | 58 | 133 | 0.0 | 0.0 | 0.00 | 0.00 | 0.00 | 98 | 1017.3 |
| 20260906075206 | 58 | 131 | 0.0 | 0.0 | 0.00 | 0.00 | 0.00 | 97 | 1017.6 |
| 20260906074702 | 58 | 129 | 0.0 | 0.0 | 0.00 | 0.00 | 0.00 | 97 | 1017.4 |
| 20260906074201 | 58 | 129 | 0.0 | 0.0 | 0.00 | 0.00 | 0.00 | 97 | 1017.4 |
| 20260906073656 | 58 | 133 | 0.0 | 0.0 | 0.00 | 0.00 | 0.00 | 97 | 1017.1 |
| 20260906073151 | 58 | 130 | 0.0 | 0.0 | 0.00 | 0.00 | 0.00 | 97 | 1017.4 |
| 20260906072647 | 58 | 145 | 0.0 | 0.0 | 0.00 | 0.00 | 0.00 | 97 | 1017.2 |
| 20260906072142 | 58 | 133 | 0.0 | 0.0 | 0.00 | 0.00 | 0.00 | 97 | 1017.3 |
| 20260906071638 | 58 | 131 | 0.0 | 0.0 | 0.00 | 0.00 | 0.00 | 97 | 1017.3 |
| 20260906071132 | 58 | 130 | 0.0 | 0.0 | 0.00 | 0.00 | 0.00 | 97 | 1017.1 |
| 20260906070629 | 58 | 129 | 0.0 | 0.0 | 0.00 | 0.00 | 0.00 | 97 | 1017.2 |
| 20260906070125 | 58 | 126 | 0.0 | 0.0 | 0.00 | 0.00 | 0.00 | 97 | 1017.3 |
| 20260906065624 | 58 | 124 | 0.0 | 0.0 | 0.00 | 0.00 | 0.00 | 97 | 1017.3 |
| 20260906065120 | 58 | 123 | 0.0 | 0.0 | 0.00 | 0.00 | 0.00 | 96 | 1017.3 |
| 20260906064615 | 59 | 121 | 0.0 | 0.0 | 0.00 | 0.00 | 0.00 | 96 | 1017.4 |
| 20260906064110 | 59 | 125 | 0.0 | 0.0 | 0.00 | 0.00 | 0.00 | 95 | 1017.6 |
| 20260906063605 | 59 | 125 | 0.0 | 0.0 | 0.00 | 0.00 | 0.00 | 95 | 1017.5 |
| 20260906063101 | 59 | 128 | 0.0 | 0.0 | 0.00 | 0.00 | 0.00 | 95 | 1017.5 |
| 20260906062557 | 59 | 125 | 0.0 | 0.0 | 0.00 | 0.00 | 0.00 | 94 | 1017.5 |
| 20260906062056 | 59 | 133 | 0.0 | 0.0 | 0.00 | 0.00 | 0.00 | 93 | 1017.3 |
| 20260906061552 | 60 | 135 | 0.0 | 0.0 | 0.00 | 0.00 | 0.00 | 93 | 1017.5 |
| 20260906061051 | 60 | 128 | 0.0 | 0.0 | 0.00 | 0.00 | 0.00 | 92 | 1017.3 |
| 20260906060548 | 60 | 125 | 0.0 | 0.0 | 0.00 | 0.00 | 0.00 | 92 | 1017.4 |
| 20260906060045 | 60 | 128 | 0.0 | 0.0 | 0.00 | 0.00 | 0.00 | 91 | 1017.1 |
| 20260906055541 | 60 | 127 | 0.0 | 0.0 | 0.00 | 0.00 | 0.00 | 91 | 1017.4 |
| 20260906055035 | 61 | 126 | 0.0 | 0.0 | 0.00 | 0.00 | 0.00 | 91 | 1017.3 |
| 20260906054530 | 61 | 124 | 0.0 | 0.0 | 0.00 | 0.00 | 0.00 | 91 | 1017.2 |
| 20260906054025 | 61 | 136 | 0.0 | 0.0 | 0.00 | 0.00 | 0.00 | 91 | 1017.3 |
| 20260906053521 | 61 | 127 | 0.0 | 0.0 | 0.00 | 0.00 | 0.00 | 91 | 1017.0 |
| 20260906053017 | 61 | 132 | 0.0 | 0.0 | 0.00 | 0.00 | 0.00 | 90 | 1017.1 |
| 20260906052512 | 62 | 127 | 0.0 | 0.0 | 0.00 | 0.00 | 0.00 | 90 | 1017.2 |
| 20260906052010 | 62 | 130 | 0.0 | 0.0 | 0.00 | 0.00 | 0.00 | 89 | 1017.1 |
| 20260906051505 | 62 | 134 | 0.0 | 0.0 | 0.00 | 0.00 | 0.00 | 89 | 1016.9 |
| 20260906051000 | 62 | 133 | 0.0 | 0.0 | 0.00 | 0.00 | 0.00 | 89 | 1016.9 |
| 20260906050500 | 62 | 124 | 0.0 | 0.0 | 0.00 | 0.00 | 0.00 | 89 | 1017.0 |
| 20260906045954 | 63 | 116 | 0.0 | 0.0 | 0.00 | 0.00 | 0.00 | 89 | 1016.9 |
| 20260906045453 | 63 | 122 | 1.0 | 1.0 | 0.00 | 0.00 | 0.00 | 89 | 1016.9 |
| 20260906044949 | 63 | 130 | 0.0 | 0.0 | 0.00 | 0.00 | 0.00 | 88 | 1017.1 |
| 20260906044444 | 63 | 128 | 0.0 | 0.0 | 0.00 | 0.00 | 0.00 | 88 | 1016.9 |
| 20260906043940 | 63 | 120 | 0.0 | 0.0 | 0.00 | 0.00 | 0.00 | 88 | 1016.7 |
| 20260906043435 | 64 | 132 | 0.0 | 0.0 | 0.00 | 0.00 | 0.00 | 88 | 1016.7 |
| 20260906042931 | 64 | 128 | 0.0 | 0.0 | 0.00 | 0.00 | 0.00 | 87 | 1016.5 |
| 20260906042430 | 64 | 129 | 0.0 | 0.0 | 0.00 | 0.00 | 0.00 | 87 | 1016.5 |
| 20260906041925 | 65 | 126 | 0.0 | 0.0 | 0.00 | 0.00 | 0.00 | 86 | 1016.7 |
| 20260906041421 | 65 | 136 | 0.0 | 0.0 | 0.00 | 0.00 | 0.00 | 85 | 1016.4 |
| 20260906040921 | 65 | 111 | 0.0 | 0.0 | 0.00 | 0.00 | 0.00 | 85 | 1016.3 |
| 20260906040416 | 65 | 123 | 1.0 | 2.0 | 0.00 | 0.00 | 0.00 | 85 | 1016.4 |
| 20260906035911 | 65 | 134 | 1.0 | 1.0 | 0.00 | 0.68 | 0.68 | 85 | 1016.2 |
| 20260906035407 | 66 | 107 | 2.0 | 2.0 | 0.00 | 0.68 | 0.68 | 85 | 1016.3 |
| 20260906034901 | 66 | 135 | 1.0 | 1.0 | 0.00 | 0.68 | 0.68 | 85 | 1016.4 |
| 20260906034356 | 66 | 152 | 1.0 | 1.0 | 0.00 | 0.68 | 0.68 | 85 | 1016.4 |
| 20260906033852 | 66 | 113 | 0.0 | 1.0 | 0.00 | 0.68 | 0.68 | 86 | 1016.2 |
| 20260906033351 | 66 | 132 | 1.0 | 2.0 | 0.00 | 0.68 | 0.68 | 87 | 1016.2 |
| 20260906032848 | 66 | 118 | 0.0 | 0.0 | 0.00 | 0.68 | 0.68 | 87 | 1016.3 |
| 20260906032343 | 66 | 139 | 0.0 | 0.0 | 0.00 | 0.68 | 0.68 | 87 | 1016.4 |
| 20260906031838 | 66 | 128 | 0.0 | 0.0 | 0.00 | 0.68 | 0.68 | 87 | 1016.3 |
| 20260906031334 | 67 | 127 | 0.0 | 0.0 | 0.00 | 0.68 | 0.68 | 87 | 1016.4 |
| 20260906030834 | 67 | 162 | 0.0 | 1.0 | 0.00 | 0.68 | 0.68 | 87 | 1016.3 |
| 20260906030329 | 67 | 115 | 0.0 | 0.0 | 0.00 | 0.68 | 0.68 | 88 | 1016.0 |
| 20260906025823 | 66 | 219 | 3.0 | 5.0 | 0.00 | 0.68 | 0.68 | 88 | 1016.2 |
| 20260906025317 | 66 | 139 | 0.0 | 1.0 | 0.00 | 0.68 | 0.68 | 89 | 1015.9 |
| 20260906024816 | 67 | 123 | 0.0 | 0.0 | 0.00 | 0.68 | 0.68 | 89 | 1015.7 |
| 20260906024315 | 66 | 139 | 0.0 | 0.0 | 0.00 | 0.68 | 0.68 | 90 | 1015.7 |
| 20260906023811 | 66 | 131 | 1.0 | 1.0 | 0.00 | 0.68 | 0.68 | 90 | 1015.7 |
| 20260906023306 | 67 | 133 | 0.0 | 0.0 | 0.00 | 0.68 | 0.68 | 90 | 1015.8 |
| 20260906022802 | 67 | 115 | 0.0 | 0.0 | 0.00 | 0.68 | 0.68 | 89 | 1015.8 |
| 20260906022257 | 67 | 123 | 0.0 | 0.0 | 0.00 | 0.68 | 0.68 | 88 | 1015.8 |
| 20260906021753 | 67 | 152 | 0.0 | 1.0 | 0.00 | 0.68 | 0.68 | 88 | 1015.6 |
| 20260906021252 | 67 | 131 | 0.0 | 1.0 | 0.00 | 0.68 | 0.68 | 88 | 1015.6 |
| 20260906020747 | 67 | 131 | 0.0 | 0.0 | 0.00 | 0.68 | 0.68 | 88 | 1015.5 |
| 20260906020247 | 68 | 132 | 0.0 | 0.0 | 0.00 | 0.68 | 0.68 | 88 | 1015.4 |
| 20260906015741 | 68 | 179 | 0.0 | 1.0 | 0.00 | 0.68 | 0.68 | 88 | 1015.6 |
| 20260906015239 | 68 | 157 | 0.0 | 0.0 | 0.00 | 0.68 | 0.68 | 87 | 1015.7 |
| 20260906014734 | 68 | 126 | 0.0 | 0.0 | 0.00 | 0.68 | 0.68 | 87 | 1015.7 |
| 20260906014230 | 68 | 132 | 0.0 | 0.0 | 0.00 | 0.68 | 0.68 | 87 | 1015.6 |
| 20260906013726 | 69 | 135 | 0.0 | 0.0 | 0.00 | 0.68 | 0.68 | 86 | 1015.6 |
| 20260906013226 | 69 | 139 | 0.0 | 0.0 | 0.00 | 0.68 | 0.68 | 86 | 1015.4 |
| 20260906012721 | 69 | 132 | 0.0 | 0.0 | 0.00 | 0.68 | 0.68 | 86 | 1015.4 |
| 20260906012216 | 69 | 136 | 0.0 | 0.0 | 0.00 | 0.68 | 0.68 | 86 | 1015.5 |
| 20260906011711 | 69 | 160 | 2.0 | 3.0 | 0.00 | 0.68 | 0.68 | 85 | 1015.3 |
| 20260906011206 | 69 | 132 | 0.0 | 0.0 | 0.00 | 0.68 | 0.68 | 85 | 1015.1 |
| 20260906010701 | 69 | 132 | 0.0 | 0.0 | 0.00 | 0.68 | 0.68 | 86 | 1015.1 |
| 20260906010158 | 69 | 148 | 0.0 | 1.0 | 0.00 | 0.68 | 0.68 | 86 | 1015.0 |
| 20260906005657 | 69 | 130 | 2.0 | 2.0 | 0.00 | 0.68 | 0.68 | 87 | 1015.0 |
| 20260906005156 | 69 | 132 | 0.0 | 0.0 | 0.00 | 0.68 | 0.68 | 89 | 1015.0 |
| 20260906004655 | 69 | 134 | 0.0 | 0.0 | 0.00 | 0.68 | 0.68 | 89 | 1014.9 |
| 20260906004151 | 70 | 129 | 0.0 | 0.0 | 0.00 | 0.68 | 0.68 | 88 | 1014.8 |
| 20260906003646 | 70 | 123 | 0.0 | 0.0 | 0.00 | 0.68 | 0.68 | 89 | 1014.8 |
| 20260906003142 | 70 | 77 | 1.0 | 1.0 | 0.00 | 0.68 | 0.68 | 89 | 1014.8 |
| 20260906002636 | 70 | 132 | 0.0 | 0.0 | 0.00 | 0.68 | 0.68 | 90 | 1015.1 |
| 20260906002131 | 70 | 136 | 0.0 | 0.0 | 0.00 | 0.68 | 0.68 | 91 | 1014.8 |
| 20260906001626 | 70 | 129 | 0.0 | 0.0 | 0.00 | 0.68 | 0.68 | 90 | 1014.8 |
| 20260906001126 | 71 | 126 | 0.0 | 0.0 | 0.00 | 0.68 | 0.68 | 92 | 1014.6 |
| 20260906000622 | 71 | 131 | 0.0 | 0.0 | 0.00 | 0.68 | 0.68 | 91 | 1014.8 |
| 20260906000118 | 71 | 124 | 0.0 | 0.0 | 0.00 | 0.68 | 0.68 | 90 | 1014.6 |
| 20260905235616 | 72 | 127 | 0.0 | 0.0 | 0.00 | 0.68 | 0.68 | 89 | 1014.6 |
| 20260905235112 | 72 | 131 | 0.0 | 0.0 | 0.00 | 0.68 | 0.68 | 88 | 1014.6 |
| 20260905234607 | 73 | 122 | 0.0 | 1.0 | 0.00 | 0.68 | 0.68 | 88 | 1014.8 |
| 20260905234102 | 73 | 127 | 0.0 | 0.0 | 0.00 | 0.68 | 0.68 | 88 | 1014.9 |
| 20260905233602 | 73 | 126 | 0.0 | 0.0 | 0.00 | 0.68 | 0.68 | 88 | 1014.8 |
| 20260905233056 | 73 | 127 | 0.0 | 0.0 | 0.00 | 0.68 | 0.68 | 87 | 1014.5 |
| 20260905232552 | 74 | 123 | 0.0 | 0.0 | 0.00 | 0.68 | 0.68 | 85 | 1014.8 |
| 20260905232047 | 74 | 123 | 0.0 | 0.0 | 0.00 | 0.68 | 0.68 | 84 | 1014.8 |
| 20260905231543 | 74 | 50 | 1.0 | 1.0 | 0.00 | 0.68 | 0.68 | 82 | 1014.8 |
| 20260905231039 | 75 | 58 | 1.0 | 1.0 | 0.00 | 0.68 | 0.68 | 84 | 1014.8 |
| 20260905230538 | 76 | 123 | 0.0 | 0.0 | 0.00 | 0.68 | 0.68 | 82 | 1014.8 |
| 20260905230037 | 76 | 136 | 0.0 | 0.0 | 0.00 | 0.68 | 0.68 | 80 | 1014.5 |
| 20260905225531 | 77 | 144 | 0.0 | 0.0 | 0.00 | 0.68 | 0.68 | 81 | 1014.3 |
| 20260905225027 | 77 | 135 | 0.0 | 0.0 | 0.00 | 0.68 | 0.68 | 78 | 1014.3 |
| 20260905224521 | 77 | 152 | 0.0 | 1.0 | 0.00 | 0.68 | 0.68 | 79 | 1014.4 |
| 20260905224021 | 78 | 49 | 2.0 | 2.0 | 0.00 | 0.68 | 0.68 | 77 | 1014.3 |
| 20260905223519 | 78 | 329 | 2.0 | 2.0 | 0.00 | 0.68 | 0.68 | 78 | 1014.3 |
| 20260905223014 | 77 | 145 | 0.0 | 0.0 | 0.00 | 0.68 | 0.68 | 78 | 1014.4 |
| 20260905222514 | 77 | 209 | 1.0 | 1.0 | 0.00 | 0.68 | 0.68 | 79 | 1014.1 |
| 20260905222009 | 77 | 147 | 0.0 | 0.0 | 0.00 | 0.68 | 0.68 | 83 | 1014.2 |
| 20260905221506 | 77 | 117 | 0.0 | 0.0 | 0.00 | 0.68 | 0.68 | 81 | 1014.3 |
| 20260905221001 | 76 | 146 | 1.0 | 1.0 | 0.00 | 0.68 | 0.68 | 81 | 1014.1 |
| 20260905220457 | 76 | 148 | 1.0 | 1.0 | 0.00 | 0.68 | 0.68 | 81 | 1014.0 |
| 20260905215956 | 76 | 12 | 1.0 | 2.0 | 0.00 | 0.68 | 0.68 | 82 | 1014.0 |
| 20260905215452 | 76 | 139 | 0.0 | 0.0 | 0.00 | 0.68 | 0.68 | 86 | 1013.9 |
| 20260905214948 | 76 | 137 | 0.0 | 0.0 | 0.00 | 0.68 | 0.68 | 87 | 1014.0 |
| 20260905214444 | 75 | 145 | 1.0 | 1.0 | 0.00 | 0.68 | 0.68 | 88 | 1014.1 |
| 20260905213944 | 75 | 131 | 0.0 | 1.0 | 0.00 | 0.68 | 0.68 | 88 | 1013.9 |
| 20260905213440 | 75 | 130 | 0.0 | 0.0 | 0.00 | 0.68 | 0.68 | 91 | 1013.9 |
| 20260905212935 | 74 | 132 | 0.0 | 0.0 | 0.00 | 0.68 | 0.68 | 90 | 1014.3 |
| 20260905212430 | 74 | 127 | 0.0 | 0.0 | 0.00 | 0.68 | 0.68 | 92 | 1014.1 |
| 20260905211929 | 74 | 129 | 0.0 | 1.0 | 0.00 | 0.68 | 0.68 | 91 | 1014.2 |
| 20260905211425 | 74 | 115 | 1.0 | 1.0 | 0.00 | 0.68 | 0.68 | 91 | 1014.1 |
| 20260905210921 | 74 | 130 | 0.0 | 0.0 | 0.00 | 0.68 | 0.68 | 92 | 1014.0 |
| 20260905210421 | 74 | 301 | 3.0 | 3.0 | 0.00 | 0.68 | 0.68 | 91 | 1013.8 |
| 20260905205920 | 73 | 131 | 0.0 | 0.0 | 0.00 | 0.68 | 0.68 | 93 | 1014.1 |
| 20260905205415 | 73 | 131 | 1.0 | 2.0 | 0.00 | 0.68 | 0.68 | 93 | 1014.0 |
| 20260905204914 | 73 | 93 | 0.0 | 1.0 | 0.00 | 0.68 | 0.68 | 95 | 1013.9 |
| 20260905204410 | 73 | 125 | 0.0 | 0.0 | 0.00 | 0.68 | 0.68 | 95 | 1014.1 |
| 20260905203909 | 73 | 106 | 0.0 | 1.0 | 0.00 | 0.68 | 0.68 | 97 | 1014.2 |
| 20260905203405 | 72 | 92 | 1.0 | 2.0 | 0.00 | 0.68 | 0.68 | 97 | 1014.1 |
| 20260905202900 | 72 | 115 | 1.0 | 1.0 | 0.00 | 0.68 | 0.68 | 99 | 1014.4 |
| 20260905202355 | 72 | 316 | 2.0 | 2.0 | 0.00 | 0.68 | 0.68 | 99 | 1014.1 |
| 20260905201850 | 71 | 88 | 1.0 | 1.0 | 0.00 | 0.68 | 0.68 | 99 | 1014.4 |
| 20260905201346 | 71 | 121 | 0.0 | 1.0 | 0.00 | 0.68 | 0.68 | 99 | 1014.4 |
| 20260905200840 | 72 | 122 | 0.0 | 1.0 | 0.00 | 0.68 | 0.68 | 99 | 1014.5 |
| 20260905200337 | 71 | 134 | 0.0 | 1.0 | 0.00 | 0.68 | 0.68 | 99 | 1014.1 |
| 20260905195834 | 72 | 75 | 1.0 | 1.0 | 0.00 | 0.68 | 0.68 | 99 | 1014.2 |
| 20260905195329 | 71 | 122 | 0.0 | 0.0 | 0.00 | 0.68 | 0.68 | 99 | 1014.4 |
| 20260905194825 | 71 | 105 | 2.0 | 2.0 | 0.00 | 0.68 | 0.68 | 99 | 1014.3 |
| 20260905194325 | 71 | 90 | 0.0 | 0.0 | 0.00 | 0.68 | 0.68 | 99 | 1014.4 |
| 20260905193824 | 71 | 140 | 0.0 | 0.0 | 0.00 | 0.68 | 0.68 | 99 | 1014.5 |
| 20260905193319 | 70 | 129 | 0.0 | 0.0 | 0.00 | 0.68 | 0.68 | 99 | 1014.4 |
| 20260905192815 | 70 | 130 | 0.0 | 0.0 | 0.00 | 0.68 | 0.68 | 99 | 1014.5 |
| 20260905192311 | 70 | 121 | 0.0 | 0.0 | 0.00 | 0.68 | 0.68 | 99 | 1014.3 |
| 20260905191810 | 70 | 131 | 0.0 | 0.0 | 0.07 | 0.68 | 0.68 | 99 | 1014.6 |
| 20260905191308 | 69 | 127 | 0.0 | 0.0 | 0.07 | 0.68 | 0.68 | 99 | 1014.7 |
| 20260905190807 | 69 | 77 | 1.0 | 1.0 | 0.05 | 0.67 | 0.67 | 99 | 1014.6 |
| 20260905190301 | 69 | 105 | 2.0 | 2.0 | 0.12 | 0.67 | 0.67 | 99 | 1014.9 |
| 20260905185800 | 69 | 44 | 0.0 | 1.0 | 0.07 | 0.66 | 0.66 | 99 | 1014.9 |
| 20260905185254 | 69 | 81 | 1.0 | 1.0 | 0.05 | 0.65 | 0.65 | 99 | 1014.7 |
| 20260905184748 | 69 | 84 | 1.0 | 2.0 | 0.05 | 0.65 | 0.65 | 99 | 1014.8 |
| 20260905184248 | 69 | 36 | 2.0 | 2.0 | 0.00 | 0.64 | 0.64 | 99 | 1014.6 |
| 20260905183747 | 70 | 122 | 1.0 | 1.0 | 0.00 | 0.64 | 0.64 | 99 | 1014.8 |
| 20260905183242 | 69 | 131 | 0.0 | 0.0 | 0.00 | 0.64 | 0.64 | 99 | 1014.8 |